Orbital Elements at Epoch 2458754.5 (2019-Sep-28.0) TDB
Reference: JPL 5 (heliocentric ecliptic J2000)
Element | Value | Uncertainty (1-sigma) | Units |
e | .5952322281552187 | 0.0011209 | |
a | 2.547762193018646 | 0.0071978 | au |
q | 1.031252026058531 | 5.7733e-05 | au |
i | 1.562654364496201 | 0.0020767 | deg |
node | 30.37905144360015 | 0.0082654 | deg |
peri | 351.2138026733826 | 0.0085046 | deg |
M | 356.65809753394 | 0.015411 | deg |
tp | 2458768.288849451779 (2019-Oct-11.78884945) | 0.0051536 | TDB |
period | 1485.377222421687 4.07 | 6.2946 0.01723 | d yr |
n | .2423626770128288 | 0.0010271 | deg/d |
Q | 4.064272359978761 | 0.011482 | au |
|
| | Orbit Determination Parameters
Additional Information
|